Skip Page Navigation
NASA JPL Caltech
NASA Logo - Jet Propulsion Laboratory + View the NASA Portal
+ Center for Near-Earth Object Studies
JPL Home Earth Solar System Stars & Galaxies Technology
JPL Solar System Dynamics
BODIES ORBITS EPHEMERIDES TOOLS PHYSICAL DATA DISCOVERY FAQ SITE MAP
JPL Small-Body Database Browser
Search: [ help ]  
78515 (2002 RV90)
Classification: Main-belt Asteroid          SPK-ID: 2078515
Ephemeris | Orbit Diagram | Orbital Elements | Mission Design | Physical Parameters | Discovery Circumstances ]

[ show orbit diagram ]
Orbital Elements at Epoch 2459000.5 (2020-May-31.0) TDB
Reference: JPL 14 (heliocentric ecliptic J2000)
 Element Value Uncertainty (1-sigma)   Units 
e .1878508032778409 5.529e-08  
a 2.43631640748474 1.1208e-08 au
q 1.978652413299748 1.3976e-07 au
i .728975603256653 5.3881e-06 deg
node 323.3334650897742 0.00034646 deg
peri 351.4353496417679 0.00034668 deg
M 266.4915652357906 1.1584e-05 deg
tp 2459361.283982756505
(2021-May-26.78398276)
4.5202e-05 TDB
period 1388.989497256075
3.80
9.5849e-06
2.624e-08
d
yr
n .2591812254240753 1.7885e-09 deg/d
Q 2.893980401669732 1.3314e-08 au
  Orbit Determination Parameters
   # obs. used (total)      476  
   data-arc span      7944 days (21.75 yr)  
   first obs. used      1998-08-17  
   last obs. used      2020-05-17  
   planetary ephem.      DE431  
   SB-pert. ephem.      SB431-N16  
   condition code      0  
   norm. resid. RMS      .56808  
   source      ORB  
   producer      Otto Matic  
   solution date      2020-Nov-12 21:26:35  

Additional Information
 Earth MOID = .964859 au 
 Jupiter MOID = 2.38942 au 
 T_jup = 3.480 
[ show covariance matrix ]

Ephemeris | Orbit Diagram | Orbital Elements | Mission Design | Physical Parameters | Discovery Circumstances ]

Physical Parameter Table
Parameter Symbol Value Units Sigma Reference Notes
absolute magnitude H 16.3   n/a MPO468739  

78515 (2002 RV90)          Discovered 2002-Sep-05 by LINEAR at Socorro
Reference: 20040415/Numbers.arcLast Updated: 2004-04-19

Alternate Designations
 2002 RV90 = 2000 AZ249 
Ephemeris | Orbit Diagram | Orbital Elements | Mission Design | Physical Parameters | Discovery Circumstances ]
ABOUT SSD CREDITS/AWARDS PRIVACY/COPYRIGHT GLOSSARY LINKS
FirstGov 2020-Dec-03 05:40 UT
(server date/time)  
NASA Home Page
Site Manager:   Ryan S. Park
Webmaster  Alan B. Chamberlin